FW1542 Weather Reports


time (UTC)temp
C
wind
direction
speed
KPH
gust
KPH
rain 1hr
cm
rain 24hr
cm
rain mn
cm
humidity
%
barometer
mb
20260506103049 23 138 1.6 6.4 0.00 0.00 0.00 92 1009.7
20260506103043 23 0 0.0 8.0 0.00 0.00 0.00 91 1007.4
20260506101601 23 145 3.2 12.9 0.00 0.00 0.00 92 1009.7
20260506101544 23 0 3.2 12.9 0.00 0.00 0.00 91 1007.5
20260506100047 23 166 3.2 11.3 0.00 0.00 0.00 92 1009.6
20260506094550 23 123 4.8 14.5 0.00 0.00 0.00 92 1007.5
20260506094548 23 126 6.4 12.9 0.00 0.00 0.00 92 1009.7
20260506093051 23 175 3.2 17.7 0.00 0.00 0.00 92 1007.4
20260506093045 23 176 4.8 17.7 0.00 0.00 0.00 92 1009.7
20260506091545 23 148 3.2 11.3 0.00 0.00 0.00 92 1009.5
20260506090051 23 167 3.2 16.1 0.00 0.00 0.00 92 1009.5
20260506090049 23 167 4.8 17.7 0.00 0.00 0.00 91 1007.4
20260506084551 23 0 6.4 19.3 0.00 0.00 0.00 91 1007.6
20260506084545 23 109 8.0 19.3 0.00 0.00 0.00 91 1009.8
20260506083047 23 165 3.2 12.9 0.00 0.00 0.00 90 1007.6
20260506083039 23 166 3.2 12.9 0.00 0.00 0.00 91 1009.9
20260506081549 23 155 4.8 17.7 0.00 0.00 0.00 90 1007.6
20260506081542 23 153 4.8 16.1 0.00 0.00 0.00 91 1010.0
20260506073046 24 175 4.8 17.7 0.00 0.00 0.00 90 1007.9
20260506073034 24 161 3.2 14.5 0.00 0.00 0.00 90 1010.0
20260506071544 24 145 3.2 14.5 0.00 0.00 0.00 90 1008.0
20260506071532 24 144 4.8 14.5 0.00 0.00 0.00 90 1010.0
20260506061548 24 178 4.8 22.5 0.00 0.00 0.00 90 1008.0
20260506061528 24 178 4.8 22.5 0.00 0.00 0.00 90 1010.2
20260506044544 25 136 8.0 19.3 0.00 0.00 0.00 88 1007.8
20260506044517 25 129 8.0 19.3 0.00 0.00 0.00 88 1010.0
20260506043043 25 94 6.4 17.7 0.00 0.00 0.00 88 1007.7
20260506043014 25 143 4.8 17.7 0.00 0.00 0.00 88 1010.0
20260506041556 25 115 6.4 14.5 0.00 0.00 0.00 87 1007.5
20260506041523 25 144 6.4 14.5 0.00 0.00 0.00 87 1009.8
20260506040042 25 139 8.0 22.5 0.00 0.00 0.00 86 1007.3
20260506040013 25 142 6.4 22.5 0.00 0.00 0.00 87 1009.6
20260506034613 25 159 9.7 19.3 0.00 0.00 0.00 86 1009.5
20260506034551 25 114 11.3 24.1 0.00 0.00 0.00 85 1007.2
20260506033043 26 136 11.3 22.5 0.00 0.00 0.00 85 1007.0
20260506033011 26 138 9.7 22.5 0.00 0.00 0.00 85 1009.3
20260506031545 26 143 9.7 20.9 0.00 0.00 0.00 84 1006.9
20260506031511 26 101 11.3 17.7 0.00 0.00 0.00 84 1009.3
20260506030049 26 157 6.4 16.1 0.00 0.00 0.00 83 1006.7
20260506030010 26 134 6.4 16.1 0.00 0.00 0.00 83 1009.0
20260506024543 27 123 11.3 20.9 0.00 0.00 0.00 82 1006.5
20260506024509 27 139 9.7 20.9 0.00 0.00 0.00 82 1008.8
20260506023102 27 141 9.7 22.5 0.00 0.00 0.00 80 1006.3
20260506023008 27 124 9.7 22.5 0.00 0.00 0.00 80 1008.6
20260506021544 27 126 8.0 16.1 0.00 0.00 0.00 78 1006.2
20260506021508 27 131 6.4 16.1 0.00 0.00 0.00 78 1008.5
20260506020051 28 127 9.7 17.7 0.00 0.00 0.00 76 1006.2
20260506020007 28 79 9.7 17.7 0.00 0.00 0.00 77 1008.4
20260506014545 28 114 9.7 16.1 0.00 0.00 0.00 75 1005.7
20260506014507 28 138 9.7 16.1 0.00 0.00 0.00 76 1007.9
20260506013052 28 82 6.4 14.5 0.00 0.00 0.00 75 1005.4
20260506013018 28 107 4.8 12.9 0.00 0.00 0.00 75 1007.7
20260506011548 28 104 9.7 19.3 0.00 0.00 0.00 74 1005.3
20260506011520 28 74 8.0 19.3 0.00 0.00 0.00 74 1007.5
20260506010048 29 126 6.4 12.9 0.00 0.00 0.00 73 1005.0
20260506010008 29 113 6.4 12.9 0.00 0.00 0.00 73 1007.3
20260506004543 29 86 3.2 9.7 0.00 0.00 0.00 72 1005.0
20260506004505 29 86 3.2 8.0 0.00 0.00 0.00 72 1007.1
20260506003042 30 113 4.8 11.3 0.00 0.00 0.00 71 1004.9
20260506003003 30 137 4.8 11.3 0.00 0.00 0.00 71 1007.2
20260506001553 30 98 6.4 12.9 0.00 0.00 0.00 70 1004.9
20260506001503 30 121 6.4 12.9 0.00 0.00 0.00 71 1007.2
20260506000057 30 0 0.0 3.2 0.00 0.00 0.00 71 1004.8
20260506000002 30 184 0.0 0.0 0.00 0.00 0.00 71 1007.0
20260505234541 30 180 0.0 8.0 0.00 0.00 0.00 70 1004.8
20260505234503 30 180 0.0 8.0 0.00 0.00 0.00 71 1007.0
20260505233050 30 180 3.2 9.7 0.00 0.00 0.00 70 1004.8
20260505233001 30 180 3.2 6.4 0.00 0.00 0.00 70 1007.1
20260505231546 30 0 0.0 12.9 0.00 0.00 0.00 70 1004.7
20260505231501 30 169 0.0 12.9 0.00 0.00 0.00 71 1007.1
20260505230122 30 180 0.0 6.4 0.00 0.00 0.00 70 1007.0
20260505230110 30 180 0.0 8.0 0.00 0.00 0.00 69 1004.8
20260505224600 30 153 3.2 16.1 0.00 0.00 0.00 68 1007.1
20260505224543 30 119 1.6 16.1 0.00 0.00 0.00 69 1004.8
20260505223059 30 157 6.4 14.5 0.00 0.00 0.00 70 1007.1
20260505223052 30 192 4.8 14.5 0.00 0.00 0.00 69 1004.7
20260505221604 30 138 6.4 12.9 0.00 0.00 0.00 70 1007.0
20260505221556 30 124 3.2 14.5 0.00 0.00 0.00 70 1004.8
20260505220051 30 89 8.0 17.7 0.00 0.00 0.00 67 1005.0
20260505214557 30 178 6.4 16.1 0.00 0.00 0.00 69 1007.6
20260505214547 30 156 4.8 16.1 0.00 0.00 0.00 68 1005.2
20260505213053 30 214 0.0 11.3 0.00 0.00 0.00 70 1007.7
20260505213041 30 0 3.2 11.3 0.00 0.00 0.00 69 1005.4
20260505211600 30 145 6.4 14.5 0.00 0.00 0.00 69 1007.8
20260505211554 30 148 8.0 14.5 0.00 0.00 0.00 68 1005.6
20260505210048 30 218 3.2 12.9 0.00 0.00 0.00 71 1008.2
20260505210042 30 207 3.2 16.1 0.00 0.00 0.00 70 1005.9
20260505204545 30 211 3.2 14.5 0.00 0.00 0.00 72 1008.5
20260505204542 30 166 4.8 12.9 0.00 0.00 0.00 71 1006.1
20260505203046 30 202 4.8 14.5 0.00 0.00 0.00 70 1006.4
20260505203043 30 203 4.8 12.9 0.00 0.00 0.00 71 1008.7
20260505201548 29 161 3.2 16.1 0.00 0.00 0.00 73 1006.7
20260505201539 29 175 1.6 16.1 0.00 0.00 0.00 73 1009.0
20260505200055 28 157 4.8 16.1 0.00 0.00 0.00 73 1006.7
20260505200041 28 157 6.4 14.5 0.00 0.00 0.00 73 1009.1
20260505194544 28 209 3.2 12.9 0.00 0.00 0.00 74 1007.1
20260505194538 28 200 4.8 12.9 0.00 0.00 0.00 74 1009.3
20260505193059 28 202 3.2 14.5 0.00 0.00 0.00 74 1007.1
20260505193036 28 202 3.2 11.3 0.00 0.00 0.00 74 1009.5
20260505191544 28 138 3.2 12.9 0.00 0.00 0.00 76 1007.2
20260505191535 28 138 4.8 12.9 0.00 0.00 0.00 76 1009.6
20260505190045 27 149 6.4 14.5 0.00 0.00 0.00 76 1007.5
20260505190027 27 144 6.4 14.5 0.00 0.00 0.00 77 1009.9
20260505184545 27 223 0.0 11.3 0.00 0.00 0.00 77 1007.7
20260505184527 27 229 1.6 6.4 0.00 0.00 0.00 78 1010.2
20260505183047 27 216 4.8 16.1 0.00 0.00 0.00 78 1007.8
20260505183025 27 216 6.4 14.5 0.00 0.00 0.00 78 1010.3
20260505181546 26 231 3.2 16.1 0.00 0.00 0.00 80 1008.1
20260505181523 26 240 3.2 16.1 0.00 0.00 0.00 80 1010.5
20260505180045 26 229 4.8 12.9 0.00 0.00 0.00 80 1007.8
20260505180017 26 219 4.8 12.9 0.00 0.00 0.00 81 1010.5
20260505174542 25 162 1.6 14.5 0.00 0.00 0.00 83 1008.3
20260505174514 25 181 1.6 14.5 0.00 0.00 0.00 83 1010.8
20260505173044 25 157 4.8 12.9 0.00 0.00 0.00 83 1008.4
20260505173013 25 227 4.8 12.9 0.00 0.00 0.00 84 1010.8
20260505171546 25 192 4.8 11.3 0.00 0.00 0.00 84 1008.5
20260505171509 25 223 4.8 14.5 0.00 0.00 0.00 85 1010.9
20260505170041 24 197 4.8 12.9 0.00 0.00 0.00 86 1008.4
20260505170005 24 229 3.2 12.9 0.00 0.00 0.00 87 1010.9
20260505164544 23 186 4.8 16.1 0.00 0.00 0.00 87 1008.5
20260505164501 23 156 4.8 12.9 0.00 0.00 0.00 88 1010.9
20260505163103 23 186 1.6 9.7 0.00 0.00 0.00 89 1010.8
20260505163046 23 0 3.2 9.7 0.00 0.00 0.00 89 1008.5
20260505161602 22 233 1.6 11.3 0.00 0.00 0.00 90 1011.0
20260505161547 22 0 3.2 11.3 0.00 0.00 0.00 90 1008.5
20260505153047 22 0 1.6 9.7 0.00 0.00 0.00 91 1008.5
20260505153043 22 200 1.6 9.7 0.00 0.00 0.00 92 1011.0
20260505151548 22 236 4.8 14.5 0.00 0.00 0.00 92 1008.4
20260505151539 22 236 4.8 14.5 0.00 0.00 0.00 92 1011.0
20260505130106 20 223 4.8 14.5 0.00 0.00 0.00 94 1008.2
20260505124549 20 219 6.4 19.3 0.00 0.00 0.00 94 1008.2
20260505124528 20 217 3.2 19.3 0.00 0.00 0.00 94 1010.7
20260505123046 20 210 4.8 16.1 0.00 0.00 0.00 93 1008.0
20260505123026 20 211 3.2 16.1 0.00 0.00 0.00 94 1010.3
20260505121546 20 0 4.8 17.7 0.00 0.00 0.00 93 1007.7
20260505121533 20 230 4.8 17.7 0.00 0.00 0.00 94 1010.2
20260505120043 20 181 4.8 16.1 0.00 0.00 0.00 93 1007.6
20260505120026 20 200 6.4 16.1 0.00 0.00 0.00 94 1010.1
20260505114542 20 181 4.8 17.7 0.00 0.00 0.00 93 1007.5
20260505114524 20 217 4.8 17.7 0.00 0.00 0.00 94 1010.0
20260505113042 20 209 3.2 11.3 0.00 0.00 0.00 94 1007.3
20260505113022 20 206 3.2 9.7 0.00 0.00 0.00 94 1009.8
20260505111545 20 125 6.4 17.7 0.00 0.00 0.00 94 1007.4
20260505111522 20 136 6.4 17.7 0.00 0.00 0.00 94 1009.9